Weather History for KNSI - October, 2012

Change the Weather History Date:

Wednesday, October 31, 2012

  Actual Average Record
Temperature  
Mean Temperature 70 °F -  
Max Temperature 82 °F 64 °F 82 °F (2012)
Min Temperature 59 °F 54 °F 47 °F (1996)
Cooling Degree Days 4    
Growing Degree Days 20 (Base 50)    
Moisture  
Dew Point 52 °F    
Average Humidity 61    
Maximum Humidity 82    
Minimum Humidity 39    
Precipitation  
Precipitation 0.00 in - - ()
Sea Level Pressure  
Sea Level Pressure 30.01 in    
Wind  
Wind Speed 5 mph (WNW)    
Max Wind Speed 17 mph    
Max Gust Speed 22 mph    
Visibility 6 miles    
Events      
Averages and records for this station are not official NWS values.
T = Trace of Precipitation, MM = Missing Value Source: NWS Daily Summary

Daily Weather History Graph

Daily Weather History Graph

Search for Another Location

Airport or City:

Trip Planner

Search our weather history database for the weather conditions in past years. The results will help you decide how hot, cold, wet, or windy it might be!

Date:

Astronomy

Oct. 31, 2012 Rise Set
Actual Time 7:15 AM PDT 6:06 PM PDT
Civil Twilight 6:50 AM PDT 6:32 PM PDT
Nautical Twilight 6:20 AM PDT 7:01 PM PDT
Astronomical Twilight 5:52 AM PDT 7:30 PM PDT
Moon 7:27 PM PDT (10/31) 8:55 AM PDT (10/31)
Length of Visible Light 11h 41m
Length of Day
10h 50m
Waning Gibbous, 97% of the Moon is Illuminated
Oct 31
Waning Gibbous
Nov 6
Last Quarter
Nov 13
New
Nov 20
First Quarter
Nov 28
Full

Hourly Weather History & Observations

Time (PDT) Temp. Heat Index Dew Point Humidity Pressure Visibility Wind Dir Wind Speed Gust Speed Precip Events Conditions
12:53 AM 63.0 °F - 51.1 °F 65% 30.01 in - Calm Calm - N/A   Clear
1:53 AM 66.9 °F - 52.0 °F 59% 30.01 in - WSW 4.6 mph - N/A   Clear
2:53 AM 64.9 °F - 48.9 °F 56% 29.99 in - West 6.9 mph - N/A   Clear
3:53 AM 64.0 °F - 48.9 °F 58% 29.98 in - West 4.6 mph - N/A   Clear
4:53 AM 64.9 °F - 48.9 °F 56% 29.98 in - West 6.9 mph - N/A   Clear
5:35 AM 62.6 °F - 48.2 °F 59% 30.01 in - WSW 3.5 mph - N/A   Scattered Clouds
5:43 AM 62.6 °F - 48.2 °F 59% 30.01 in - Calm Calm - N/A   Mostly Cloudy
5:53 AM 64.9 °F - 51.1 °F 61% 29.99 in - Calm Calm - N/A   Overcast
6:00 AM 59.0 °F - 51.8 °F 77% 30.01 in 3.0 mi Calm Calm - N/A   Haze
6:53 AM 59.7 °F - 51.1 °F 73% 30.01 in 3.0 mi West 4.6 mph - N/A   Haze
7:12 AM 59.0 °F - 53.6 °F 82% 30.03 in 5.0 mi WSW 3.5 mph - N/A   Mostly Cloudy
7:53 AM 60.1 °F - 53.1 °F 78% 30.03 in 7.0 mi West 3.5 mph - N/A   Mostly Cloudy
8:53 AM 60.1 °F - 53.1 °F 78% 30.05 in 7.0 mi WNW 6.9 mph - N/A   Mostly Cloudy
9:53 AM 62.4 °F - 53.1 °F 71% 30.05 in 7.0 mi Variable 4.6 mph - N/A   Mostly Cloudy
10:53 AM 62.4 °F - 53.1 °F 71% 30.06 in 7.0 mi Variable 4.6 mph - N/A   Mostly Cloudy
10:56 AM 75.2 °F - 53.6 °F 47% 30.07 in 7.0 mi NNW 3.5 mph - N/A   Mostly Cloudy
11:53 AM 63.9 °F - 53.1 °F 68% 30.04 in 7.0 mi NNW 4.6 mph - N/A   Mostly Cloudy
12:53 PM 72.0 °F - 53.1 °F 51% 30.02 in - Variable 5.8 mph - N/A   Clear
1:53 PM 70.0 °F - 53.1 °F 55% 29.99 in - North 4.6 mph - N/A   Clear
2:21 PM 64.4 °F - 53.6 °F 68% 30.01 in 7.0 mi Variable 3.5 mph - N/A   Mostly Cloudy
2:53 PM 64.0 °F - 53.1 °F 67% 29.99 in 7.0 mi NNW 6.9 mph - N/A   Mostly Cloudy
3:53 PM 80.1 °F 79.9 °F 53.1 °F 39% 29.98 in - SW 10.4 mph - N/A   Clear
4:53 PM 73.9 °F - 53.1 °F 48% 29.98 in - West 13.8 mph - N/A   Clear
5:53 PM 69.1 °F - 52.0 °F 54% 29.98 in - West 11.5 mph - N/A   Partly Cloudy
6:05 PM 69.8 °F - 51.8 °F 53% 29.99 in - West 13.8 mph - N/A   Mostly Cloudy
6:46 PM 69.8 °F - 51.8 °F 53% 29.99 in - WNW 6.9 mph - N/A   Scattered Clouds
6:53 PM 69.1 °F - 52.0 °F 54% 29.98 in - WNW 11.5 mph - N/A   Mostly Cloudy
7:53 PM 69.1 °F - 53.1 °F 57% 29.99 in - WNW 12.7 mph - N/A   Overcast
8:53 PM 68.0 °F - 53.1 °F 59% 29.99 in - WNW 15.0 mph - N/A   Mostly Cloudy
9:28 PM 68.0 °F - 53.6 °F 60% 30.01 in - WNW 13.8 mph - N/A   Overcast
9:53 PM 68.0 °F - 54.0 °F 61% 29.99 in - WNW 17.3 mph 21.9 mph N/A   Overcast
10:53 PM 71.1 °F - 54.0 °F 55% 30.00 in - NW 10.4 mph - N/A   Overcast
11:53 PM 71.1 °F - 54.0 °F 55% 30.00 in - West 8.1 mph - N/A   Overcast